Temperature
21 21 21 21 18 17 19 19 19 20 19 20 19 19 18 18 18 18 18 18 18 18 18 18 17 17 17 17 17 17 18 18 18 18 18 18 18 18 17 17 17 17 17 17 17 17 17 17 17
21 21 21 21 17 17 19 19 20 20 20 20 20 19 18 18 18 18 18 18 18 18 18 17 17 17 17 17 17 17 17 17 17 17 17 17 17 17 17 17 17 17 17 17 17 17 17 17 17
21 21 21 17 17 18 20 20 20 20 20 20 19 19 18 18 18 18 18 18 18 18 17 17 17 17 17 17 17 17 17 17 17 17 17 17 17 17 17 17 17 17 17 17 17 17 17 17 17
21 21 21 17 19 19 19 20 20 20 20 20 19 18 18 18 18 18 18 18 18 18 17 17 17 17 17 17 17 17 17 17 17 17 17 17 17 17 17 17 17 17 17 17 17 17 17 17 17
22 21 18 18 19 20 19 20 20 20 20 19 19 18 18 18 18 18 18 18 18 17 17 17 17 17 17 17 16 17 17 17 17 17 17 17 17 17 17 17 17 17 17 17 17 17 17 16 17
22 19 17 18 19 20 20 21 20 20 19 19 19 18 18 18 18 18 18 18 17 17 17 17 17 17 16 16 16 16 16 16 16 16 16 16 16 16 16 16 16 16 16 16 16 16 16 16 16
20 17 18 19 19 20 21 21 20 19 19 19 19 18 18 18 18 18 18 18 17 17 17 17 17 17 16 16 16 16 16 16 16 16 16 16 16 16 16 16 16 16 16 16 16 16 16 16 16
21 17 18 18 19 20 21 21 21 20 20 20 20 18 18 19 18 18 18 17 17 17 17 17 17 16 16 16 16 16 16 16 16 16 16 16 16 16 16 16 16 16 16 16 16 16 16 16 16
21 17 18 19 19 20 21 21 21 20 20 19 19 20 20 19 18 18 18 17 17 17 17 17 17 17 16 16 16 16 16 16 16 16 16 16 16 16 16 16 16 16 16 16 16 16 16 16 16
21 18 20 20 20 20 21 21 21 20 19 19 19 20 19 19 18 18 18 18 18 17 17 17 17 17 16 16 16 16 16 16 16 16 16 16 16 16 16 16 16 16 16 16 16 16 16 16 16
21 19 20 21 21 21 21 21 21 20 19 20 20 20 19 19 19 18 18 18 18 17 17 17 17 17 17 16 16 16 16 16 16 16 16 16 16 16 16 16 16 16 15 15 15 15 15 15 15
20 21 21 21 22 21 21 21 20 20 21 21 21 20 20 19 19 19 19 18 18 18 17 17 17 17 17 16 16 16 16 16 16 16 16 16 16 16 16 16 15 15 15 15 15 15 15 15 15
21 21 21 22 22 21 21 20 20 20 21 21 21 20 20 19 19 19 19 18 18 18 17 17 17 17 17 16 16 16 16 16 16 16 16 16 16 16 15 15 15 15 15 15 15 15 15 15 15
21 21 21 21 21 21 20 20 20 20 21 21 20 20 20 20 19 19 19 18 18 18 18 17 17 17 17 16 16 16 16 16 16 16 16 15 15 15 15 15 15 15 15 15 15 15 15 15 15
21 20 20 20 21 21 21 19 19 20 20 20 20 20 20 19 19 19 19 19 18 18 18 17 17 17 17 16 16 16 16 16 16 16 16 15 15 15 15 15 15 15 15 15 15 15 15 15 15
20 19 19 20 20 20 20 19 19 20 20 19 19 19 19 19 19 19 19 19 18 18 18 18 17 17 17 16 16 16 16 16 16 16 16 15 15 15 15 15 15 15 15 15 15 15 15 15 15
18 18 19 19 19 19 19 19 18 19 19 18 19 19 19 19 19 19 19 19 19 18 18 18 17 17 17 16 16 16 16 16 16 16 15 15 15 15 15 15 15 15 15 15 15 15 15 14 14
18 18 19 19 19 19 18 18 17 18 18 18 19 19 19 19 19 19 19 19 19 18 18 18 17 17 17 16 16 16 16 16 16 16 15 15 15 15 15 15 15 15 15 15 15 14 14 14 14
19 18 18 18 19 19 18 17 17 18 18 18 18 19 19 19 20 19 19 19 18 18 18 18 17 17 17 16 16 16 16 16 16 16 16 15 15 15 15 15 15 15 15 15 15 14 14 14 14
18 18 18 18 19 19 17 17 17 17 17 18 18 18 19 19 19 19 19 19 18 18 18 18 17 17 17 17 16 16 16 16 16 16 16 15 15 15 15 15 15 15 15 15 14 14 14 14 14
18 18 18 18 18 18 18 17 17 17 18 18 18 18 19 19 19 19 19 18 18 18 18 18 18 17 17 17 16 16 16 16 16 16 16 15 15 15 15 15 15 15 15 15 14 14 14 14 14
18 19 19 18 17 16 17 16 16 16 16 16 17 18 18 19 19 19 19 19 18 18 18 18 17 17 17 17 16 16 16 16 16 16 16 15 15 15 15 15 15 15 15 15 14 14 14 14 14
18 18 18 18 17 16 16 16 15 15 16 16 16 17 18 18 19 19 19 19 19 18 18 18 17 17 17 17 16 16 16 16 16 16 16 15 15 15 15 15 15 15 15 15 14 14 14 14 14
18 17 16 15 15 15 16 15 15 15 16 16 16 17 18 18 18 19 19 19 19 18 18 18 17 17 17 17 16 16 16 16 16 16 15 15 15 15 15 15 15 15 15 15 15 14 14 14 14
17 16 15 16 14 15 15 15 15 16 16 16 17 17 18 18 18 18 18 18 18 18 18 18 17 17 17 17 16 16 16 16 16 16 15 15 15 15 15 15 15 15 15 15 14 14 14 14 14
16 16 15 16 15 15 15 15 15 16 17 17 18 18 18 18 18 18 18 18 18 18 18 18 17 17 17 17 16 16 16 16 16 16 15 15 15 15 15 15 15 15 15 15 14 14 14 14 14
16 15 15 14 15 15 14 15 16 16 16 16 17 17 18 18 18 18 18 18 18 18 18 18 18 17 17 17 16 16 16 16 16 16 15 15 15 15 15 15 15 15 15 15 14 14 14 14 14
16 14 13 14 14 14 15 15 15 16 16 15 15 16 17 18 18 18 18 18 18 18 17 17 17 17 17 17 17 16 16 16 16 15 15 15 15 15 15 15 15 15 15 15 15 14 14 14 14
15 14 13 12 13 13 14 14 16 15 15 15 15 17 17 17 17 17 17 17 17 17 17 17 17 17 17 17 16 16 16 16 15 15 15 15 15 15 15 15 15 15 15 15 14 14 14 14 14
15 14 13 13 13 12 13 14 16 15 15 15 16 16 17 17 17 17 17 17 17 17 17 17 17 17 17 16 16 16 16 16 16 16 16 16 15 15 15 15 15 15 15 15 15 14 14 14 14
Wind_Speed
3 3 3 4 6 6 3 2 1 2 3 2 4 6 6 4 2 2 1 1 2 3 4 4 5 6 6 6 7 8 9 9 9 9 9 9 9 9 8 8 8 8 8 8 8 9 8 8 8
1 2 4 5 6 4 2 2 1 1 4 4 5 5 6 4 3 3 1 1 3 4 4 4 5 5 6 6 7 7 8 8 8 8 8 8 8 8 8 8 8 8 8 8 8 8 8 8 8
1 3 4 5 4 4 2 1 1 3 3 2 4 5 4 2 2 3 2 3 4 3 4 4 5 6 6 6 7 7 7 7 7 7 7 8 8 8 8 8 7 8 8 8 8 8 8 8 9
3 5 5 6 4 1 3 2 2 4 3 5 4 4 3 1 3 3 4 5 4 3 3 3 5 6 6 6 6 7 7 7 7 7 7 7 7 7 7 6 7 8 8 8 8 8 8 9 10
4 5 6 4 2 2 1 1 2 3 2 3 4 4 2 3 2 5 5 5 5 3 2 2 4 5 5 5 5 6 6 6 6 6 6 7 7 6 6 6 7 7 8 8 8 8 9 9 10
5 5 5 2 1 2 1 0 3 3 3 3 4 4 0 1 3 4 4 4 4 3 2 2 3 4 4 4 4 5 5 5 5 6 6 6 6 6 6 6 7 7 8 8 9 8 9 10 10
5 5 4 3 1 1 0 1 3 4 3 2 5 4 0 1 2 3 4 3 3 3 2 2 2 2 3 3 4 4 4 4 5 5 6 6 6 6 6 7 7 8 8 9 9 10 11 11 11
5 5 4 2 2 1 1 1 2 3 3 3 4 6 4 4 3 4 4 3 2 2 1 1 2 2 2 3 3 3 4 4 5 6 6 6 6 6 7 7 7 8 9 10 10 11 12 12 12
4 5 3 4 4 3 1 2 2 2 5 3 1 3 3 6 7 5 3 2 1 1 1 1 1 1 1 2 3 3 3 4 5 6 6 7 6 6 6 6 7 8 9 10 11 12 12 13 13
4 4 4 4 5 3 2 2 3 3 3 1 2 2 5 8 8 6 4 4 3 3 2 2 1 1 1 2 3 3 3 4 5 5 5 6 6 6 6 7 8 9 11 12 12 13 13 12 11
3 4 2 1 3 3 2 1 2 5 2 4 6 7 7 6 6 6 5 4 5 3 2 2 2 1 1 1 2 2 3 3 4 4 5 5 5 6 6 7 7 9 10 10 11 12 11 10 9
3 1 2 1 2 2 2 2 2 2 4 4 7 9 8 8 8 7 6 5 4 3 3 3 2 2 1 1 1 2 2 2 2 3 5 5 3 4 4 5 6 7 7 8 8 8 9 10 10
2 1 1 1 3 3 3 2 2 1 2 3 6 7 8 8 7 6 5 5 4 4 4 3 3 2 2 2 1 2 2 2 2 3 4 5 3 2 3 4 5 6 6 6 6 7 7 7 9
0 1 2 2 2 1 3 1 1 2 1 5 6 6 6 7 6 4 4 4 4 4 4 4 4 3 2 2 2 1 2 2 3 3 4 5 4 3 3 3 4 5 6 7 7 7 6 6 7
2 3 4 3 1 1 4 3 1 3 2 4 4 5 5 5 5 5 5 5 5 5 4 4 5 3 3 3 2 2 2 3 2 3 4 5 6 5 4 3 3 4 6 8 8 8 7 6 6
4 4 2 4 1 1 4 2 4 1 4 3 3 3 3 3 4 5 4 4 5 4 4 4 5 4 4 3 2 2 2 3 3 3 3 5 6 6 5 3 3 5 7 7 5 5 6 6 6
4 1 1 4 1 1 3 3 3 0 3 3 3 3 3 3 3 4 4 5 5 4 4 4 4 4 4 3 2 3 3 3 2 3 3 4 5 6 6 4 4 7 6 4 5 4 4 5 6
2 2 1 3 2 2 2 3 4 1 2 3 3 3 3 4 6 5 5 4 4 3 4 4 4 4 4 3 3 2 3 2 2 3 3 5 5 6 6 4 5 6 5 4 4 5 5 5 5
3 3 2 3 2 1 3 4 5 2 1 2 3 4 4 6 5 3 4 3 3 3 3 4 5 4 4 3 2 2 1 1 1 1 3 5 5 6 6 4 4 4 4 5 5 5 6 4 4
3 2 2 3 1 1 1 3 4 2 3 4 5 5 5 5 3 2 3 4 4 5 4 5 5 5 5 4 3 2 2 1 1 1 3 3 4 5 5 5 4 4 5 5 5 5 4 2 2
2 4 4 3 2 2 2 4 3 3 2 2 2 3 4 6 5 4 4 4 4 5 6 6 5 5 5 5 4 3 3 3 2 1 1 1 3 5 5 6 5 4 4 5 4 5 5 3 1
3 4 4 3 2 2 1 3 5 4 4 3 3 3 4 5 4 4 4 4 5 6 5 5 5 4 4 5 6 6 4 3 2 2 2 2 3 4 5 6 5 5 4 4 4 4 3 4 2
3 0 2 2 3 1 2 1 6 3 4 5 5 4 4 4 4 5 5 5 5 4 4 4 4 4 4 5 6 6 4 3 2 2 3 2 2 3 4 5 5 4 4 4 4 4 3 3 3
2 5 5 5 4 1 3 3 5 3 4 5 5 4 4 3 3 3 3 2 2 2 2 3 4 4 4 5 6 6 6 5 4 3 3 2 1 2 3 4 4 4 4 4 4 4 4 3 3
5 5 3 4 3 4 2 2 6 5 4 4 4 4 3 2 2 2 2 2 2 3 3 3 4 4 4 5 5 6 6 6 6 5 4 3 2 1 3 3 3 3 4 4 4 4 3 3 3
1 6 5 3 4 4 2 4 6 4 3 3 2 1 1 1 2 2 3 4 4 4 4 5 5 5 5 5 5 5 5 5 4 4 4 5 4 4 4 4 4 4 4 5 4 3 3 3 3
4 2 4 5 1 1 4 5 6 2 3 3 2 2 1 2 3 3 3 2 4 5 5 6 6 5 6 6 5 5 5 5 4 4 4 4 3 4 4 5 4 4 4 5 4 3 3 3 3
4 5 4 4 3 3 5 4 4 4 4 4 3 2 3 3 2 3 2 3 3 4 5 5 5 6 6 6 6 5 5 5 5 4 4 4 4 3 4 4 4 4 4 4 4 3 3 4 3
3 3 4 3 3 4 3 5 4 4 3 3 4 4 3 3 3 3 3 3 2 2 3 4 4 4 4 5 5 5 5 5 5 4 4 4 4 4 4 5 5 4 4 4 5 4 4 4 3
3 4 5 3 2 3 3 6 3 2 3 3 4 4 3 3 3 3 2 2 2 1 2 4 4 4 4 4 5 6 5 5 5 4 4 4 4 4 4 4 5 4 4 5 5 5 5 5 5
Wind_Direction
357 77 88 60 54 53 48 345 328 21 50 46 67 81 90 79 90 128 262 116 128 119 120 128 121 115 108 104 105 104 104 102 100 99 97 98 98 96 99 101 98 98 96 91 89 87 85 85 85
70 93 58 60 78 72 9 326 35 89 140 138 76 72 75 66 72 114 131 167 132 121 119 128 127 121 116 111 112 109 106 104 103 99 96 95 96 95 95 97 96 95 94 91 90 88 84 84 87
99 63 77 68 87 132 154 238 145 79 94 97 72 59 82 97 118 156 192 152 126 117 119 126 127 123 119 114 111 108 106 104 103 102 98 94 92 91 89 89 91 93 93 91 91 88 85 86 89
79 47 56 69 78 198 186 190 150 114 64 53 90 69 57 33 162 165 141 131 125 115 116 136 134 128 125 123 119 112 106 104 103 101 97 93 92 91 89 91 92 92 92 90 88 88 87 88 90
63 73 62 57 39 353 319 207 129 99 72 54 89 94 45 350 97 127 133 134 133 122 107 132 137 132 125 122 118 117 114 107 103 100 96 94 92 90 85 86 88 90 91 89 86 86 90 90 91
57 67 84 94 26 348 342 60 116 95 97 91 99 106 84 26 121 142 138 139 134 131 110 99 130 124 119 116 114 111 114 112 107 100 98 96 91 87 80 82 88 91 92 89 85 84 91 92 91
96 88 112 133 116 356 197 106 122 117 116 149 134 117 190 233 181 146 129 120 111 112 103 62 84 102 107 108 107 105 104 103 106 101 97 90 85 83 81 80 87 91 91 88 84 85 88 89 88
114 98 91 121 142 236 200 104 112 122 131 127 129 142 191 210 148 117 104 99 101 112 122 104 76 82 80 86 99 96 94 90 92 90 87 79 73 74 73 74 84 92 91 88 87 86 88 88 85
91 80 133 183 173 215 165 111 69 74 105 96 119 171 179 138 123 116 104 87 133 173 169 145 103 71 82 90 95 80 78 78 84 85 81 72 61 60 62 73 79 84 84 83 85 87 86 83 83
83 117 197 200 184 182 150 133 140 97 85 83 72 82 113 126 136 147 163 180 197 210 206 173 181 190 84 95 85 70 61 66 78 79 75 70 62 57 63 68 73 76 77 75 78 83 80 77 74
102 150 187 190 174 145 126 105 108 124 167 202 183 167 146 146 156 172 188 195 203 203 201 180 187 186 133 94 87 76 69 74 85 88 85 82 69 60 61 63 61 63 69 71 74 76 74 76 76
94 112 155 157 142 129 145 138 104 157 224 208 179 163 158 166 182 193 198 202 193 182 203 194 180 180 165 114 88 86 82 84 89 97 105 98 80 69 68 68 66 66 73 77 78 81 78 77 77
77 38 69 99 86 110 106 111 138 269 278 117 136 150 168 180 194 203 199 194 182 186 206 203 176 179 167 125 120 103 99 109 121 113 115 120 108 90 76 77 77 76 80 83 84 85 81 79 75
152 78 40 43 71 102 116 33 78 274 129 121 141 167 185 192 193 187 188 193 191 193 204 194 180 184 168 159 152 140 136 132 123 125 130 128 122 107 93 85 83 80 84 87 92 92 87 80 77
77 55 16 3 17 133 106 13 293 251 144 148 174 187 196 203 191 196 200 199 198 197 193 185 181 170 168 173 170 151 152 133 122 128 134 132 128 122 118 109 98 96 98 98 95 88 85 82 75
62 62 9 311 13 91 120 260 290 221 140 177 210 210 210 221 209 213 207 199 193 186 185 188 176 163 172 172 157 136 126 118 119 125 127 132 134 135 127 121 110 108 103 102 100 93 86 79 75
37 68 257 306 334 99 137 230 294 179 155 198 224 228 228 240 239 227 211 197 188 185 181 180 164 161 170 159 130 114 105 104 115 118 121 132 134 138 132 121 119 117 105 99 109 92 97 94 85
215 213 249 261 294 102 168 250 290 274 181 215 231 238 239 240 241 230 211 195 183 177 175 171 164 159 147 123 99 81 82 82 95 113 134 138 138 140 132 123 121 120 110 103 105 102 89 95 96
168 172 234 259 262 145 211 258 283 281 233 246 246 238 237 243 248 225 206 189 171 169 172 172 166 162 145 134 136 134 148 165 121 109 120 131 139 141 135 133 125 122 122 128 124 113 101 92 100
159 170 253 295 321 159 226 279 284 265 235 234 235 234 232 246 266 230 201 185 191 194 187 180 178 174 169 165 159 145 137 142 139 101 96 119 135 142 143 138 133 128 124 127 130 126 116 107 96
192 192 209 226 10 35 54 326 303 295 289 287 277 247 229 224 226 219 207 205 202 202 201 197 192 182 174 160 130 102 80 69 69 83 113 114 134 136 136 141 138 138 138 148 150 141 135 139 88
240 226 197 184 126 299 53 286 291 290 314 309 299 295 256 238 222 210 206 211 213 215 205 196 190 184 174 158 153 152 152 158 186 177 158 127 120 122 128 133 139 144 145 150 156 145 140 141 147
216 36 136 150 150 344 353 220 292 325 312 297 284 277 273 246 227 217 213 213 217 206 196 189 180 179 172 168 166 161 159 165 149 131 127 117 99 106 123 133 139 147 150 152 146 137 143 148 156
126 71 57 51 76 298 253 194 282 262 256 282 281 282 276 263 246 235 228 219 207 181 177 177 174 182 171 167 169 170 168 160 148 147 147 138 113 106 124 137 147 153 153 157 159 154 155 156 151
68 83 34 3 11 261 260 200 254 258 251 250 258 263 268 263 247 244 232 227 214 188 183 179 178 185 177 170 176 181 179 172 174 172 166 162 163 173 183 163 160 162 162 158 153 154 160 162 164
144 134 154 201 231 279 307 239 258 276 283 287 281 268 297 271 249 240 230 225 219 209 193 182 182 190 183 179 184 184 178 174 180 177 173 181 189 197 188 175 172 171 162 158 155 152 165 159 167
120 139 161 137 171 268 281 290 305 331 354 1 3 2 303 266 255 251 242 248 230 215 204 195 188 190 194 190 183 182 180 177 181 180 177 184 189 187 179 175 175 170 165 162 156 160 164 150 156
121 135 95 116 155 257 293 285 268 293 306 319 320 296 287 298 298 294 269 259 253 223 210 197 191 193 197 191 188 186 185 184 180 173 180 183 185 177 169 171 170 165 164 162 159 161 159 146 147
72 83 94 113 149 164 258 274 241 248 261 262 266 275 274 279 285 289 284 280 273 226 194 192 195 187 188 192 189 182 182 182 175 180 190 187 184 176 174 175 168 169 171 167 164 169 160 154 150
148 148 137 152 218 180 196 265 287 277 286 285 289 291 297 295 288 284 286 306 315 265 208 197 195 192 192 188 183 185 180 173 177 185 186 175 177 175 174 171 168 174 173 172 171 173 166 164 165
Height
1504 1504 1504 1506 1510 1522 1527 1522 1518 1517 1516 1517 1516 1516 1518 1521 1524 1530 1526 1524 1524 1524 1524 1524 1524 1524 1524 1525 1525 1525 1526 1526 1526 1526 1527 1527 1527 1528 1528 1528 1529 1529 1529 1529 1530 1530 1531 1531 1532
1504 1505 1506 1507 1520 1535 1530 1521 1519 1517 1517 1517 1517 1518 1519 1522 1523 1524 1524 1524 1525 1525 1525 1524 1525 1525 1525 1525 1526 1526 1526 1527 1527 1527 1527 1528 1528 1528 1529 1529 1529 1530 1530 1530 1531 1531 1532 1532 1533
1505 1506 1507 1511 1524 1532 1527 1519 1518 1517 1517 1518 1519 1520 1521 1523 1524 1524 1525 1525 1526 1526 1525 1525 1525 1525 1526 1526 1527 1527 1527 1528 1528 1528 1528 1529 1529 1529 1529 1530 1530 1530 1531 1531 1531 1532 1532 1533 1534
1506 1508 1509 1518 1525 1523 1520 1518 1517 1518 1518 1519 1520 1522 1523 1525 1525 1526 1526 1526 1526 1526 1526 1526 1526 1526 1527 1527 1528 1528 1528 1528 1529 1529 1529 1530 1530 1530 1530 1531 1531 1531 1532 1532 1532 1533 1533 1534 1535
1507 1508 1517 1526 1524 1520 1518 1518 1518 1518 1519 1520 1521 1523 1525 1526 1526 1526 1527 1527 1527 1527 1527 1527 1527 1527 1528 1528 1528 1529 1529 1529 1530 1530 1530 1530 1531 1531 1531 1532 1532 1532 1532 1533 1533 1534 1535 1535 1536
1508 1510 1527 1532 1526 1521 1519 1518 1518 1519 1520 1521 1522 1524 1526 1526 1526 1527 1528 1528 1528 1528 1528 1528 1528 1528 1529 1529 1529 1530 1530 1530 1531 1531 1531 1531 1532 1532 1532 1533 1533 1533 1534 1534 1534 1535 1536 1536 1537
1510 1517 1527 1528 1527 1523 1520 1519 1519 1520 1521 1522 1523 1524 1526 1527 1528 1528 1528 1529 1529 1529 1529 1529 1529 1529 1530 1530 1530 1530 1531 1531 1532 1532 1532 1532 1533 1533 1533 1534 1534 1534 1535 1535 1536 1537 1537 1538 1538
1510 1516 1525 1527 1527 1524 1519 1519 1520 1520 1522 1523 1523 1524 1525 1527 1528 1529 1529 1530 1530 1530 1530 1530 1530 1530 1531 1531 1531 1531 1531 1532 1532 1533 1533 1534 1534 1534 1534 1535 1535 1536 1536 1537 1537 1538 1539 1539 1540
1511 1521 1528 1525 1524 1522 1519 1520 1521 1521 1522 1523 1523 1524 1525 1527 1528 1529 1530 1530 1530 1531 1531 1531 1531 1532 1532 1532 1532 1532 1533 1533 1534 1534 1535 1535 1535 1536 1536 1536 1537 1537 1538 1538 1539 1539 1540 1541 1541
1512 1524 1522 1518 1518 1518 1518 1519 1521 1522 1522 1523 1524 1525 1526 1527 1528 1529 1530 1530 1531 1531 1532 1532 1532 1533 1533 1533 1533 1534 1534 1534 1535 1535 1536 1536 1537 1537 1537 1538 1538 1538 1539 1540 1540 1541 1541 1542 1542
1513 1518 1516 1516 1516 1517 1518 1520 1521 1521 1523 1523 1523 1524 1526 1527 1528 1529 1530 1531 1531 1532 1532 1533 1533 1533 1534 1534 1534 1535 1535 1536 1536 1537 1537 1537 1538 1538 1539 1539 1539 1540 1541 1541 1542 1543 1543 1543 1544
1514 1515 1515 1516 1516 1517 1519 1520 1521 1522 1522 1522 1523 1524 1525 1527 1528 1529 1530 1531 1532 1532 1533 1534 1534 1534 1535 1535 1535 1536 1536 1537 1537 1538 1538 1539 1539 1540 1540 1541 1541 1542 1542 1543 1544 1544 1545 1545 1546
1515 1516 1516 1516 1516 1518 1519 1520 1521 1522 1522 1522 1523 1524 1526 1527 1528 1530 1530 1531 1532 1533 1534 1534 1535 1535 1535 1536 1536 1537 1537 1538 1538 1539 1539 1540 1540 1541 1541 1542 1542 1543 1544 1544 1545 1546 1546 1546 1547
1516 1516 1516 1517 1517 1518 1519 1521 1522 1522 1522 1522 1523 1524 1526 1527 1528 1529 1530 1531 1532 1533 1534 1534 1535 1535 1536 1536 1537 1537 1538 1539 1539 1540 1540 1541 1541 1542 1542 1543 1544 1545 1545 1546 1546 1547 1547 1548 1548
1516 1518 1518 1518 1518 1519 1520 1523 1522 1522 1522 1522 1523 1524 1525 1527 1528 1529 1529 1530 1531 1532 1533 1534 1535 1536 1537 1537 1538 1538 1539 1539 1540 1541 1541 1542 1542 1543 1543 1544 1545 1546 1546 1547 1548 1548 1549 1549 1550
1517 1523 1527 1521 1519 1519 1524 1530 1523 1522 1522 1522 1523 1524 1525 1526 1527 1528 1529 1530 1531 1532 1533 1534 1535 1536 1537 1537 1538 1539 1539 1540 1541 1541 1542 1543 1543 1544 1544 1545 1546 1547 1547 1548 1549 1549 1550 1551 1551
1525 1531 1530 1525 1520 1520 1523 1527 1523 1522 1522 1522 1523 1524 1525 1526 1526 1527 1528 1529 1530 1531 1532 1533 1534 1536 1536 1537 1539 1539 1540 1541 1541 1542 1542 1543 1544 1544 1545 1546 1547 1548 1548 1549 1550 1551 1551 1552 1552
1531 1531 1530 1528 1522 1522 1524 1526 1522 1522 1522 1522 1522 1523 1523 1524 1525 1526 1527 1528 1530 1531 1532 1533 1534 1535 1536 1537 1538 1539 1540 1541 1542 1542 1543 1544 1544 1545 1545 1546 1547 1548 1549 1550 1551 1552 1552 1553 1553
1524 1528 1530 1527 1521 1524 1526 1526 1523 1521 1522 1522 1521 1522 1522 1522 1524 1525 1526 1527 1528 1529 1531 1532 1533 1534 1535 1536 1537 1539 1540 1541 1542 1542 1543 1544 1544 1545 1546 1546 1548 1549 1550 1551 1551 1552 1553 1554 1555
1524 1528 1530 1526 1521 1523 1527 1527 1523 1521 1521 1521 1520 1520 1520 1521 1522 1523 1524 1526 1527 1528 1529 1530 1532 1533 1534 1535 1537 1538 1539 1540 1541 1542 1543 1544 1545 1545 1546 1547 1548 1549 1550 1551 1552 1553 1554 1555 1556
1524 1527 1528 1528 1525 1524 1527 1530 1525 1520 1520 1519 1519 1519 1519 1520 1520 1521 1522 1523 1525 1526 1528 1529 1530 1532 1533 1534 1536 1537 1538 1540 1541 1542 1543 1544 1545 1545 1546 1547 1548 1549 1550 1551 1552 1554 1554 1555 1556
1527 1520 1522 1525 1531 1537 1532 1543 1529 1523 1521 1519 1518 1517 1517 1518 1519 1519 1520 1522 1523 1524 1526 1527 1529 1530 1532 1533 1534 1535 1536 1538 1539 1541 1542 1543 1544 1545 1546 1547 1548 1549 1551 1552 1553 1554 1555 1555 1556
1521 1518 1521 1524 1531 1537 1536 1542 1535 1525 1523 1520 1517 1516 1516 1516 1517 1518 1519 1520 1521 1523 1524 1526 1527 1529 1530 1531 1533 1534 1535 1537 1539 1540 1542 1543 1544 1545 1546 1547 1548 1549 1551 1552 1553 1553 1555 1556 1556
1517 1521 1526 1531 1537 1546 1539 1543 1539 1529 1523 1519 1516 1515 1515 1515 1516 1517 1518 1519 1520 1521 1522 1524 1525 1527 1528 1530 1531 1533 1534 1536 1538 1539 1541 1542 1543 1544 1545 1546 1548 1549 1550 1551 1552 1553 1554 1555 1556
1521 1532 1545 1546 1552 1549 1537 1540 1536 1521 1517 1515 1514 1514 1514 1514 1515 1516 1516 1517 1518 1519 1520 1522 1523 1525 1527 1528 1529 1531 1533 1534 1536 1538 1539 1541 1542 1543 1545 1546 1547 1548 1549 1551 1552 1553 1554 1554 1555
1525 1531 1547 1553 1554 1549 1538 1540 1528 1517 1515 1513 1513 1513 1513 1513 1514 1514 1515 1516 1517 1518 1519 1520 1521 1523 1525 1526 1528 1529 1531 1533 1535 1537 1538 1539 1541 1542 1544 1545 1546 1548 1549 1550 1551 1552 1553 1554 1554
1527 1532 1532 1544 1546 1550 1544 1534 1523 1515 1514 1513 1512 1512 1512 1512 1513 1513 1514 1515 1515 1516 1517 1518 1520 1521 1523 1525 1526 1528 1529 1531 1533 1535 1537 1538 1540 1541 1542 1544 1545 1547 1548 1549 1550 1551 1552 1553 1553
1523 1529 1538 1544 1552 1554 1545 1539 1533 1520 1516 1514 1513 1511 1511 1511 1512 1512 1513 1513 1514 1515 1515 1517 1518 1519 1521 1523 1524 1526 1528 1529 1531 1533 1535 1536 1538 1539 1541 1542 1544 1545 1547 1548 1549 1550 1551 1552 1553
1528 1532 1537 1544 1546 1553 1553 1543 1520 1518 1515 1514 1512 1511 1511 1511 1511 1511 1512 1512 1512 1513 1513 1514 1515 1517 1519 1521 1522 1524 1526 1528 1529 1531 1533 1535 1536 1538 1539 1541 1542 1544 1545 1546 1548 1549 1550 1551 1552
1524 1529 1536 1544 1548 1549 1550 1541 1515 1514 1513 1512 1512 1511 1511 1511 1511 1510 1510 1510 1510 1510 1511 1512 1513 1515 1516 1518 1520 1522 1524 1526 1528 1529 1531 1533 1535 1536 1538 1540 1541 1542 1544 1545 1546 1547 1549 1550 1550